Location: *
(45.9500°N, 9.0833°E)
Time: 07:27:13
(UTC+00:00)

USA 308 - Pass Details

Date: 03 March 2021
Orbit: 568 x 576 km, 54.0° (Epoch: 16 April)

Event Time Altitude Azimuth Distance (km) Brightness Sun altitude
Rises 18:27:03 0° 284° (WNW) 2,777 8.3 -13.6°
Reaches altitude 10° 18:29:34 10° 296° (WNW) 1,878 6.7 -14.1°
Maximum altitude 18:33:16 28° 356° (N) 1,099 4.4 -14.7°
Enters shadow 18:36:00 15° 47° (NE) 1,576 4.8 -15.2°
